FW3884 Weather Reports


time (UTC)temp
C
wind
direction
speed
KPH
gust
KPH
rain 1hr
cm
rain 24hr
cm
rain mn
cm
humidity
%
barometer
mb
20260508101528 4 0.0 0.0 0.00 0.10 0.00 75 1014.0
20260508100027 4 0.0 0.0 0.00 0.10 0.00 77 1013.8
20260508094523 5 0.0 0.0 0.00 0.13 0.00 75 1013.6
20260508093022 5 0.0 0.0 0.00 0.13 0.00 75 1013.4
20260508091521 5 0.0 0.0 0.00 0.13 0.00 75 1013.3
20260508090020 5 0.0 0.0 0.00 0.13 0.00 77 1013.2
20260508084517 5 0.0 0.0 0.00 0.15 0.00 77 1012.8
20260508083015 5 0.0 0.0 0.00 0.15 0.00 75 1012.7
20260508081513 5 0.0 0.0 0.00 0.15 0.00 75 1012.7
20260508080010 6 0.0 0.0 0.00 0.15 0.00 75 1012.4
20260508074509 6 0.0 0.0 0.00 0.15 0.00 78 1012.3
20260508073007 6 0.0 0.0 0.00 0.15 0.00 78 1012.6
20260508071507 6 0.0 0.0 0.00 0.15 0.00 77 1012.5
20260508070010 6 0.0 0.0 0.00 0.15 0.00 76 1012.5
20260508064614 7 0.0 0.0 0.00 0.15 0.00 77 1012.5
20260508063059 7 0.0 0.0 0.00 0.15 0.00 77 1012.3
20260508061605 7 0.0 0.0 0.00 0.15 0.00 77 1012.4
20260508060057 7 0.0 0.0 0.00 0.15 0.00 79 1012.4
20260508054557 7 0.0 0.0 0.00 0.18 0.00 79 1012.4
20260508053104 7 0.0 0.0 0.00 0.18 0.00 79 1012.5
20260508051554 7 0.0 0.0 0.00 0.18 0.00 80 1012.1
20260508050059 7 0.0 0.0 0.00 0.18 0.00 80 1011.9
20260508044548 7 0.0 0.0 0.00 0.18 0.00 80 1011.8
20260508043059 8 0.0 0.0 0.00 0.18 0.00 80 1011.4
20260508041546 8 0.0 0.0 0.00 0.18 0.00 80 1011.4
20260508040043 8 0.0 0.0 0.00 0.18 0.00 81 1011.3
20260508034541 8 0.0 0.0 0.00 0.23 0.18 80 1011.0
20260508033039 8 0.0 0.0 0.00 0.23 0.18 80 1011.0
20260508031550 8 0.0 0.0 0.00 0.23 0.18 79 1010.9
20260508030049 8 0.0 0.0 0.00 0.23 0.18 79 1010.9
20260508024537 8 0.0 0.0 0.00 0.28 0.18 79 1010.8
20260508023042 8 0.0 0.0 0.00 0.28 0.18 79 1010.7
20260508021538 8 0.0 0.0 0.00 0.28 0.18 79 1010.5
20260508020035 8 0.0 0.0 0.00 0.28 0.18 82 1010.5
20260508014534 8 0.0 0.0 0.00 0.28 0.18 80 1010.3
20260508013033 8 0.0 0.0 0.00 0.28 0.18 82 1009.9
20260508011530 8 0.0 0.0 0.00 0.28 0.18 81 1009.5
20260508010029 8 0.0 0.0 0.00 0.28 0.18 80 1009.2
20260508004528 9 0.0 0.0 0.00 0.28 0.18 78 1009.2
20260508003023 10 0.0 0.0 0.00 0.28 0.18 77 1009.3
20260508001523 10 0.0 0.0 0.00 0.28 0.18 78 1008.9
20260508000023 10 0.0 0.0 0.00 0.28 0.18 74 1009.0
20260507234524 10 0.0 0.0 0.00 0.28 0.18 74 1008.8
20260507233023 11 0.0 0.0 0.00 0.28 0.18 73 1008.8
20260507231526 11 0.0 0.0 0.00 0.28 0.18 75 1008.5
20260507230022 11 0.0 0.0 0.00 0.28 0.18 75 1008.3
20260507224518 12 0.0 0.0 0.00 0.28 0.18 75 1008.3
20260507223018 12 0.0 0.0 0.00 0.28 0.18 76 1008.1
20260507221518 12 0.0 0.0 0.00 0.28 0.18 77 1007.9
20260507220015 12 0.0 0.0 0.00 0.28 0.18 80 1008.0
20260507214514 12 0.0 0.0 0.00 0.28 0.18 83 1007.8
20260507213019 13 0.0 0.0 0.00 0.28 0.18 81 1007.6
20260507211512 13 0.0 0.0 0.00 0.28 0.18 83 1007.5
20260507210012 13 0.0 0.0 0.00 0.28 0.18 83 1007.5
20260507204511 13 0.0 0.0 0.00 0.28 0.18 85 1007.4
20260507203010 13 0.0 0.0 0.00 0.28 0.18 90 1007.1
20260507201511 13 0.0 0.0 0.00 0.28 0.18 85 1006.9
20260507200008 13 0.0 0.0 0.00 0.28 0.18 90 1007.2
20260507194506 13 0.0 0.0 0.00 0.28 0.18 95 1007.4
20260507193006 12 0.0 0.0 0.05 0.28 0.18 97 1007.4
20260507191505 11 0.0 0.0 0.08 0.28 0.18 98 1007.6
20260507190006 10 0.0 0.0 0.10 0.30 0.18 97 1007.8
20260507184504 10 0.0 0.0 0.10 0.30 0.18 96 1007.8
20260507183006 10 0.0 0.0 0.05 0.25 0.13 96 1008.0
20260507181501 10 0.0 0.0 0.00 0.20 0.08 95 1007.9
20260507180001 10 0.0 0.0 0.00 0.20 0.08 93 1007.8
20260507174558 10 0.0 0.0 0.00 0.20 0.08 92 1007.9
20260507173057 11 0.0 0.0 0.00 0.20 0.08 92 1007.7
20260507171554 11 0.0 0.0 0.00 0.20 0.08 91 1007.8
20260507170055 12 0.0 0.0 0.00 0.20 0.08 92 1007.8
20260507164608 12 0.0 0.0 0.00 0.23 0.08 93 1007.6
20260507163051 12 0.0 0.0 0.00 0.23 0.08 94 1007.6
20260507161549 12 0.0 0.0 0.00 0.23 0.08 93 1007.9
20260507160051 12 0.0 0.0 0.00 0.23 0.08 94 1008.1
20260507154546 12 0.0 0.0 0.00 0.23 0.08 93 1007.9
20260507153044 12 0.0 0.0 0.00 0.23 0.08 93 1008.0
20260507151543 13 0.0 0.0 0.00 0.23 0.08 93 1008.1
20260507150142 13 0.0 0.0 0.00 0.23 0.08 93 1007.9
20260507144541 13 0.0 0.0 0.00 0.23 0.08 96 1008.0
20260507143057 13 0.0 0.0 0.00 0.23 0.08 97 1007.9
20260507141555 13 0.0 0.0 0.00 0.23 0.08 97 1007.9
20260507140039 13 0.0 0.0 0.00 0.23 0.08 99 1007.7
20260507134540 13 0.0 0.0 0.00 0.23 0.08 99 1007.7
20260507133040 13 0.0 0.0 0.00 0.23 0.08 99 1007.3
20260507131543 13 0.0 0.0 0.00 0.23 0.08 99 1008.5
20260507130041 13 0.0 0.0 0.00 0.23 0.08 99 1008.5
20260507124536 13 0.0 0.0 0.00 0.28 0.08 99 1008.9
20260507123033 13 0.0 0.0 0.00 0.28 0.08 99 1008.6
20260507121531 14 0.0 0.0 0.00 0.28 0.08 99 1008.9
20260507120031 14 0.0 0.0 0.00 0.28 0.08 100 1008.9
20260507114531 14 0.0 0.0 0.00 0.28 0.08 100 1008.2
20260507113029 14 0.0 0.0 0.00 0.28 0.08 99 1008.1
20260507111529 13 0.0 0.0 0.00 0.28 0.08 99 1008.4
20260507110028 13 0.0 0.0 0.00 0.28 0.08 99 1008.0
20260507104527 14 0.0 0.0 0.00 0.28 0.08 99 1007.7
20260507103027 14 0.0 0.0 0.03 0.28 0.08 99 1007.8